Skip Page Navigation
NASA JPL Caltech
NASA Logo - Jet Propulsion Laboratory + View the NASA Portal
+ Center for Near-Earth Object Studies
JPL Home Earth Solar System Stars & Galaxies Technology
JPL Solar System Dynamics
BODIES ORBITS EPHEMERIDES TOOLS PHYSICAL DATA DISCOVERY FAQ SITE MAP
JPL Small-Body Database Browser
Search: [ help ]  
5006 Teller (1989 GL5)
Classification: Main-belt Asteroid          SPK-ID: 2005006
Ephemeris | Orbit Diagram | Orbital Elements | Mission Design | Physical Parameters | Discovery Circumstances | Close-Approach Data ]

[ show orbit diagram ]
Orbital Elements at Epoch 2459000.5 (2020-May-31.0) TDB
Reference: JPL 36 (heliocentric ecliptic J2000)
 Element Value Uncertainty (1-sigma)   Units 
e .07574779239692178 3.2289e-08  
a 3.178537171978608 1.963e-08 au
q 2.937769998149673 1.0258e-07 au
i 7.651878672916141 3.6692e-06 deg
node 102.6601061297217 2.9032e-05 deg
peri 30.52053768569682 3.9043e-05 deg
M 229.3060681985822 2.688e-05 deg
tp 2459751.936508983935
(2022-Jun-21.43650898)
0.00015652 TDB
period 2069.852360438987
5.67
1.9175e-05
5.25e-08
d
yr
n .1739254484429262 1.6112e-09 deg/d
Q 3.419304345807543 2.1117e-08 au
  Orbit Determination Parameters
   # obs. used (total)      2237  
   data-arc span      32217 days (88.21 yr)  
   first obs. used      1932-03-15  
   last obs. used      2020-05-29  
   planetary ephem.      DE431  
   SB-pert. ephem.      SB431-N16  
   condition code      0  
   norm. resid. RMS      .45327  
   source      ORB  
   producer      Otto Matic  
   solution date      2020-Jun-23 16:15:19  

Additional Information
 Earth MOID = 1.95562 au 
 Jupiter MOID = 1.64287 au 
 T_jup = 3.182 
[ show covariance matrix ]

Ephemeris | Orbit Diagram | Orbital Elements | Mission Design | Physical Parameters | Discovery Circumstances | Close-Approach Data ]

Physical Parameter Table
Parameter Symbol Value Units Sigma Reference Notes
absolute magnitude H 11.7   n/a MPO347563  
diameter diameter 12.877 km 0.279 urn:nasa:pds:neowise_diameters_albedos::2.0[mainbelt] (http://adsabs.harvard.edu/abs/2011ApJ...741...68M)  
rotation period rot_per 10.898 h n/a LCDB (Rev. 2019-August); Warner et al., 2009 Published Reference List:
[Behrend, R. (2005) Observatoire de Geneve web site, http://obswww.unige.ch/~behrend/page_cou.html]
[Durech, J.; Hanus, J.; Oszkiewsicz, D.; Vanco, R. (2016) Astron. Astrophys. 587, A48.]
geometric albedo albedo 0.268   0.039 urn:nasa:pds:neowise_diameters_albedos::2.0[mainbelt] (http://adsabs.harvard.edu/abs/2011ApJ...741...68M)  

5006 Teller (1989 GL5)          Discovered 1989-Apr-05 by Helin, E. F. at Palomar
Reference: DISCOVERY.DBLast Updated: 2003-08-29

[ show close-approach data ]
Alternate Designations
 1989 GL5 = 1932 EY = 1982 BN8 = 1986 TS2 
Ephemeris | Orbit Diagram | Orbital Elements | Mission Design | Physical Parameters | Discovery Circumstances | Close-Approach Data ]
ABOUT SSD CREDITS/AWARDS PRIVACY/COPYRIGHT GLOSSARY LINKS
FirstGov 2020-Jul-07 07:28 UT
(server date/time)  
NASA Home Page
Site Manager:   Ryan S. Park
Webmaster  Alan B. Chamberlin